Year,Month,Day,Hour,Minute,Value (Times are PST for temperature in C)
2016,10,13,00,01,10.40
2016,10,13,00,02,10.40
2016,10,13,00,03,10.40
2016,10,13,00,04,10.40
2016,10,13,00,06,10.40
2016,10,13,00,07,10.40
2016,10,13,00,09,10.40
2016,10,13,00,10,10.40
2016,10,13,00,12,10.60
2016,10,13,00,13,10.40
2016,10,13,00,14,10.40
2016,10,13,00,16,10.40
2016,10,13,00,17,10.40
2016,10,13,00,18,10.40
2016,10,13,00,19,10.40
2016,10,13,00,21,10.40
2016,10,13,00,22,10.40
2016,10,13,00,23,10.40
2016,10,13,00,24,10.40
2016,10,13,00,25,10.60
2016,10,13,00,27,10.60
2016,10,13,00,28,10.60
2016,10,13,00,29,10.60
2016,10,13,00,31,10.60
2016,10,13,00,32,10.60
2016,10,13,00,33,10.60
2016,10,13,00,34,10.70
2016,10,13,00,36,10.70
2016,10,13,00,37,10.80
2016,10,13,00,38,10.80
2016,10,13,00,39,10.90
2016,10,13,00,41,10.90
2016,10,13,00,42,11.10
2016,10,13,00,43,11.10
2016,10,13,00,44,11.10
2016,10,13,00,46,11.20
2016,10,13,00,47,11.30
2016,10,13,00,48,11.40
2016,10,13,00,49,11.40
2016,10,13,00,50,11.40
2016,10,13,00,52,11.60
2016,10,13,00,53,11.60
2016,10,13,00,54,11.70
2016,10,13,00,56,11.80
2016,10,13,00,57,11.90
2016,10,13,00,58,12.00
2016,10,13,00,59,12.10
2016,10,13,01,01,12.20
2016,10,13,01,02,12.30
2016,10,13,01,03,12.30
2016,10,13,01,04,12.30
2016,10,13,01,06,12.50
2016,10,13,01,07,12.60
2016,10,13,01,08,12.60
2016,10,13,01,09,12.70
2016,10,13,01,10,12.70
2016,10,13,01,11,12.70
2016,10,13,01,12,12.80
2016,10,13,01,13,12.80
2016,10,13,01,14,12.80
2016,10,13,01,15,12.80
2016,10,13,01,16,12.80
2016,10,13,01,17,12.80
2016,10,13,01,18,12.80
2016,10,13,01,19,12.80
2016,10,13,01,20,12.80
2016,10,13,01,21,12.80
2016,10,13,01,22,12.80
2016,10,13,01,23,12.80
2016,10,13,01,24,12.80
2016,10,13,01,25,12.80
2016,10,13,01,26,12.80
2016,10,13,01,27,12.80
2016,10,13,01,28,12.80
2016,10,13,01,29,12.80
2016,10,13,01,31,12.90
2016,10,13,01,32,12.90
2016,10,13,01,33,12.90
2016,10,13,01,34,13.00
2016,10,13,01,35,13.00
2016,10,13,01,36,13.00
2016,10,13,01,37,13.00
2016,10,13,01,38,13.00
2016,10,13,01,39,13.00
2016,10,13,01,40,13.00
2016,10,13,01,41,13.00
2016,10,13,01,42,13.00
2016,10,13,01,43,13.00
2016,10,13,01,44,12.90
2016,10,13,01,45,12.90
2016,10,13,01,46,12.90
2016,10,13,01,48,12.80
2016,10,13,01,49,12.80
2016,10,13,01,50,12.70
2016,10,13,01,51,12.70
2016,10,13,01,52,12.60
2016,10,13,01,53,12.60
2016,10,13,01,54,12.50
2016,10,13,01,55,12.50
2016,10,13,01,56,12.50
2016,10,13,01,57,12.40
2016,10,13,01,58,12.40
2016,10,13,01,59,12.30
2016,10,13,02,00,12.30
2016,10,13,02,01,12.30
2016,10,13,02,02,12.30
2016,10,13,02,03,12.30
2016,10,13,02,04,12.30
2016,10,13,02,05,12.30
2016,10,13,02,06,12.30
2016,10,13,02,07,12.30
2016,10,13,02,08,12.30
2016,10,13,02,09,12.30
2016,10,13,02,10,12.20
2016,10,13,02,11,12.20
2016,10,13,02,12,12.20
2016,10,13,02,13,12.20
2016,10,13,02,14,12.20
2016,10,13,02,15,12.20
2016,10,13,02,16,12.20
2016,10,13,02,17,12.10
2016,10,13,02,18,12.10
2016,10,13,02,19,12.10
2016,10,13,02,20,12.10
2016,10,13,02,21,12.10
2016,10,13,02,22,12.00
2016,10,13,02,23,12.00
2016,10,13,02,24,12.00
2016,10,13,02,25,12.00
2016,10,13,02,26,12.00
2016,10,13,02,27,11.90
2016,10,13,02,28,11.90
2016,10,13,02,29,11.90
2016,10,13,02,30,11.90
2016,10,13,02,32,11.90
2016,10,13,02,33,11.90
2016,10,13,02,34,11.90
2016,10,13,02,36,11.80
2016,10,13,02,37,11.80
2016,10,13,02,38,11.80
2016,10,13,02,39,11.80
2016,10,13,02,41,11.80
2016,10,13,02,42,11.80
2016,10,13,02,43,11.80
2016,10,13,02,44,11.80
2016,10,13,02,46,11.80
2016,10,13,02,47,11.80
2016,10,13,02,48,11.80
2016,10,13,02,49,11.80
2016,10,13,02,51,11.80
2016,10,13,02,52,11.80
2016,10,13,02,53,11.80
2016,10,13,02,54,11.80
2016,10,13,02,56,11.80
2016,10,13,02,57,11.80
2016,10,13,02,58,11.80
2016,10,13,02,59,11.80
2016,10,13,03,01,11.80
2016,10,13,03,02,11.80
2016,10,13,03,03,11.80
2016,10,13,03,04,11.80
2016,10,13,03,06,11.80
2016,10,13,03,07,11.80
2016,10,13,03,08,11.80
2016,10,13,03,09,11.80
2016,10,13,03,11,11.80
2016,10,13,03,12,11.80
2016,10,13,03,13,11.80
2016,10,13,03,14,11.70
2016,10,13,03,16,11.70
2016,10,13,03,17,11.70
2016,10,13,03,18,11.70
2016,10,13,03,19,11.70
2016,10,13,03,21,11.70
2016,10,13,03,22,11.70
2016,10,13,03,23,11.60
2016,10,13,03,24,11.60
2016,10,13,03,26,11.60
2016,10,13,03,27,11.60
2016,10,13,03,28,11.60
2016,10,13,03,29,11.60
2016,10,13,03,31,11.60
2016,10,13,03,32,11.60
2016,10,13,03,33,11.60
2016,10,13,03,34,11.60
2016,10,13,03,36,11.60
2016,10,13,03,37,11.40
2016,10,13,03,38,11.40
2016,10,13,03,39,11.40
2016,10,13,03,41,11.40
2016,10,13,03,42,11.40
2016,10,13,03,43,11.40
2016,10,13,03,44,11.40
2016,10,13,03,46,11.40
2016,10,13,03,47,11.40
2016,10,13,03,48,11.40
2016,10,13,03,49,11.40
2016,10,13,03,51,11.40
2016,10,13,03,52,11.40
2016,10,13,03,53,11.40
2016,10,13,03,54,11.40
2016,10,13,03,55,11.40
2016,10,13,03,56,11.40
2016,10,13,03,57,11.40
2016,10,13,03,58,11.40
2016,10,13,03,59,11.40
2016,10,13,04,00,11.40
2016,10,13,04,01,11.40
2016,10,13,04,02,11.40
2016,10,13,04,03,11.40
2016,10,13,04,04,11.40
2016,10,13,04,06,11.60
2016,10,13,04,07,11.60
2016,10,13,04,08,11.60
2016,10,13,04,09,11.60
2016,10,13,04,10,11.60
2016,10,13,04,11,11.60
2016,10,13,04,12,11.60
2016,10,13,04,13,11.60
2016,10,13,04,14,11.60
2016,10,13,04,15,11.60
2016,10,13,04,16,11.60
2016,10,13,04,17,11.60
2016,10,13,04,18,11.60
2016,10,13,04,19,11.60
2016,10,13,04,20,11.60
2016,10,13,04,21,11.60
2016,10,13,04,22,11.60
2016,10,13,04,23,11.60
2016,10,13,04,24,11.60
2016,10,13,04,25,11.60
2016,10,13,04,26,11.60
2016,10,13,04,27,11.70
2016,10,13,04,28,11.70
2016,10,13,04,29,11.70
2016,10,13,04,30,11.70
2016,10,13,04,31,11.70
2016,10,13,04,32,11.70
2016,10,13,04,33,11.70
2016,10,13,04,34,11.70
2016,10,13,04,35,11.70
2016,10,13,04,36,11.70
2016,10,13,04,37,11.70
2016,10,13,04,38,11.70
2016,10,13,04,39,11.70
2016,10,13,04,40,11.70
2016,10,13,04,41,11.70
2016,10,13,04,42,11.70
2016,10,13,04,43,11.70
2016,10,13,04,44,11.80
2016,10,13,04,45,11.80
2016,10,13,04,46,11.70
2016,10,13,04,47,11.70
2016,10,13,04,48,11.70
2016,10,13,04,49,11.70
2016,10,13,04,50,11.70
2016,10,13,04,51,11.70
2016,10,13,04,52,11.70
2016,10,13,04,53,11.70
2016,10,13,04,54,11.70
2016,10,13,04,55,11.70
2016,10,13,04,56,11.60
2016,10,13,04,57,11.60
2016,10,13,04,58,11.60
2016,10,13,04,59,11.60
2016,10,13,05,00,11.60
2016,10,13,05,01,11.60
2016,10,13,05,02,11.40
2016,10,13,05,03,11.40
2016,10,13,05,04,11.40
2016,10,13,05,05,11.40
2016,10,13,05,06,11.40
2016,10,13,05,07,11.40
2016,10,13,05,08,11.40
2016,10,13,05,09,11.40
2016,10,13,05,10,11.40
2016,10,13,05,11,11.40
2016,10,13,05,13,11.40
2016,10,13,05,14,11.40
2016,10,13,05,16,11.40
2016,10,13,05,17,11.40
2016,10,13,05,18,11.40
2016,10,13,05,19,11.40
2016,10,13,05,21,11.40
2016,10,13,05,22,11.40
2016,10,13,05,23,11.40
2016,10,13,05,24,11.40
2016,10,13,05,26,11.40
2016,10,13,05,27,11.40
2016,10,13,05,28,11.40
2016,10,13,05,29,11.40
2016,10,13,05,31,11.40
2016,10,13,05,32,11.40
2016,10,13,05,33,11.40
2016,10,13,05,34,11.40
2016,10,13,05,36,11.40
2016,10,13,05,37,11.40
2016,10,13,05,38,11.40
2016,10,13,05,39,11.40
2016,10,13,05,41,11.40
2016,10,13,05,42,11.40
2016,10,13,05,43,11.40
2016,10,13,05,44,11.40
2016,10,13,05,46,11.40
2016,10,13,05,47,11.40
2016,10,13,05,48,11.40
2016,10,13,05,49,11.40
2016,10,13,05,51,11.40
2016,10,13,05,52,11.40
2016,10,13,05,53,11.40
2016,10,13,05,54,11.40
2016,10,13,05,56,11.40
2016,10,13,05,57,11.40
2016,10,13,05,58,11.40
2016,10,13,05,59,11.40
2016,10,13,06,01,11.40
2016,10,13,06,02,11.40
2016,10,13,06,03,11.40
2016,10,13,06,04,11.40
2016,10,13,06,06,11.40
2016,10,13,06,07,11.40
2016,10,13,06,08,11.40
2016,10,13,06,09,11.40
2016,10,13,06,11,11.40
2016,10,13,06,12,11.40
2016,10,13,06,13,11.40
2016,10,13,06,14,11.40
2016,10,13,06,16,11.40
2016,10,13,06,17,11.40
2016,10,13,06,18,11.40
2016,10,13,06,19,11.40
2016,10,13,06,21,11.40
2016,10,13,06,22,11.40
2016,10,13,06,23,11.40
2016,10,13,06,24,11.40
2016,10,13,06,26,11.40
2016,10,13,06,27,11.40
2016,10,13,06,28,11.40
2016,10,13,06,29,11.40
2016,10,13,06,31,11.40
2016,10,13,06,32,11.40
2016,10,13,06,33,11.40
2016,10,13,06,34,11.40
2016,10,13,06,36,11.40
2016,10,13,06,37,11.40
2016,10,13,06,38,11.40
2016,10,13,06,39,11.40
2016,10,13,06,40,11.40
2016,10,13,06,41,11.40
2016,10,13,06,42,11.40
2016,10,13,06,44,11.40
2016,10,13,06,45,11.40
2016,10,13,06,46,11.40
2016,10,13,06,47,11.40
2016,10,13,06,48,11.40
2016,10,13,07,23,11.10
2016,10,13,07,24,11.10
2016,10,13,07,25,11.10
2016,10,13,07,26,11.10
2016,10,13,07,27,11.10
2016,10,13,07,28,11.10
2016,10,13,07,29,11.10
2016,10,13,07,30,11.10
2016,10,13,07,31,11.10
2016,10,13,07,32,10.90
2016,10,13,07,33,10.90
2016,10,13,07,34,10.90
2016,10,13,07,35,10.90
2016,10,13,07,36,10.90
2016,10,13,07,37,10.90
2016,10,13,07,38,10.90
2016,10,13,07,39,10.90
2016,10,13,07,40,10.90
2016,10,13,07,41,10.90
2016,10,13,07,42,10.90
2016,10,13,07,43,10.90
2016,10,13,07,44,10.90
2016,10,13,07,45,10.90
2016,10,13,07,46,10.90
2016,10,13,07,48,10.80
2016,10,13,07,49,10.80
2016,10,13,07,50,10.80
2016,10,13,07,52,10.80
2016,10,13,07,53,10.80
2016,10,13,08,23,10.90
2016,10,13,08,24,10.90
2016,10,13,08,25,10.90
2016,10,13,08,26,10.90
2016,10,13,08,27,10.90
2016,10,13,08,28,10.90
2016,10,13,08,29,10.90
2016,10,13,08,30,10.90
2016,10,13,08,31,10.90
2016,10,13,08,32,10.90
2016,10,13,08,33,10.90
2016,10,13,08,34,10.90
2016,10,13,08,35,11.10
2016,10,13,08,36,11.10
2016,10,13,08,37,11.10
2016,10,13,08,38,11.10
2016,10,13,08,39,11.10
2016,10,13,08,40,11.20
2016,10,13,08,41,11.20
2016,10,13,08,42,11.30
2016,10,13,08,43,11.30
2016,10,13,08,44,11.40
2016,10,13,08,45,11.40
2016,10,13,08,46,11.40
2016,10,13,08,47,11.40
2016,10,13,08,48,11.40
2016,10,13,08,49,11.40
2016,10,13,08,51,11.40
2016,10,13,08,52,11.40
2016,10,13,08,53,11.40
2016,10,13,08,54,11.40
2016,10,13,08,56,11.60
2016,10,13,08,57,11.60
2016,10,13,08,58,11.60
2016,10,13,08,59,11.60
2016,10,13,09,01,11.60
2016,10,13,09,02,11.60
2016,10,13,09,03,11.60
2016,10,13,09,04,11.60
2016,10,13,09,06,11.40
2016,10,13,09,07,11.40
2016,10,13,09,08,11.60
2016,10,13,09,09,11.60
2016,10,13,09,11,11.60
2016,10,13,09,12,11.60
2016,10,13,09,13,11.60
2016,10,13,09,14,11.60
2016,10,13,09,16,11.60
2016,10,13,09,17,11.60
2016,10,13,09,18,11.60
2016,10,13,09,19,11.60
2016,10,13,09,21,11.60
2016,10,13,09,22,11.60
2016,10,13,09,23,11.60
2016,10,13,09,24,11.60
2016,10,13,09,26,11.60
2016,10,13,09,27,11.60
2016,10,13,09,28,11.60
2016,10,13,09,29,11.60
2016,10,13,09,31,11.60
2016,10,13,09,32,11.60
2016,10,13,09,33,11.60
2016,10,13,09,34,11.60
2016,10,13,09,36,11.60
2016,10,13,09,37,11.60
2016,10,13,09,38,11.60
2016,10,13,09,39,11.60
2016,10,13,09,41,11.60
2016,10,13,09,42,11.60
2016,10,13,09,43,11.60
2016,10,13,09,44,11.60
2016,10,13,09,46,11.60
2016,10,13,09,47,11.60
2016,10,13,09,48,11.60
2016,10,13,09,49,11.60
2016,10,13,09,51,11.60
2016,10,13,09,52,11.60
2016,10,13,09,53,11.60
2016,10,13,09,54,11.60
2016,10,13,09,56,11.60
2016,10,13,09,57,11.60
2016,10,13,09,58,11.60
2016,10,13,09,59,11.60
2016,10,13,10,01,11.60
2016,10,13,10,02,11.60
2016,10,13,10,03,11.60
2016,10,13,10,04,11.60
2016,10,13,10,06,11.60
2016,10,13,10,07,11.60
2016,10,13,10,08,11.60
2016,10,13,10,09,11.60
2016,10,13,10,11,11.60
2016,10,13,10,12,11.60
2016,10,13,10,13,11.60
2016,10,13,10,14,11.60
2016,10,13,10,15,11.60
2016,10,13,10,16,11.60
2016,10,13,10,17,11.60
2016,10,13,10,18,11.60
2016,10,13,10,19,11.60
2016,10,13,10,20,11.60
2016,10,13,10,21,11.60
2016,10,13,10,22,11.60
2016,10,13,10,23,11.60
2016,10,13,10,24,11.60
2016,10,13,10,26,11.60
2016,10,13,10,27,11.60
2016,10,13,10,28,11.60
2016,10,13,10,29,11.60
2016,10,13,10,30,11.60
2016,10,13,10,31,11.60
2016,10,13,10,32,11.60
2016,10,13,10,33,11.60
2016,10,13,10,34,11.60
2016,10,13,10,35,11.60
2016,10,13,10,36,11.60
2016,10,13,10,37,11.60
2016,10,13,10,38,11.60
2016,10,13,10,39,11.60
2016,10,13,10,41,11.70
2016,10,13,10,42,11.70
2016,10,13,10,43,11.70
2016,10,13,10,44,11.70
2016,10,13,10,45,11.60
2016,10,13,10,46,11.60
2016,10,13,10,47,11.70
2016,10,13,10,48,11.70
2016,10,13,10,49,11.70
2016,10,13,10,50,11.70
2016,10,13,10,51,11.70
2016,10,13,10,52,11.70
2016,10,13,10,53,11.80
2016,10,13,10,54,11.80
2016,10,13,10,55,11.80
2016,10,13,10,56,11.80
2016,10,13,10,57,11.80
2016,10,13,10,58,11.80
2016,10,13,10,59,11.80
2016,10,13,11,00,11.80
2016,10,13,11,01,11.80
2016,10,13,11,02,11.90
2016,10,13,11,03,11.90
2016,10,13,11,04,11.90
2016,10,13,11,05,11.90
2016,10,13,11,06,12.00
2016,10,13,11,07,12.00
2016,10,13,11,08,12.00
2016,10,13,11,09,12.00
2016,10,13,11,10,12.00
2016,10,13,11,11,12.00
2016,10,13,11,12,11.90
2016,10,13,11,13,11.90
2016,10,13,11,15,11.90
2016,10,13,11,16,11.90
2016,10,13,11,17,11.90
2016,10,13,11,18,11.90
2016,10,13,11,19,11.90
2016,10,13,11,20,11.90
2016,10,13,11,21,11.90
2016,10,13,11,22,11.90
2016,10,13,11,23,11.80
2016,10,13,11,24,11.80
2016,10,13,11,25,11.80
2016,10,13,11,26,11.80
2016,10,13,11,27,11.80
2016,10,13,11,28,11.80
2016,10,13,11,29,11.80
2016,10,13,11,30,11.80
2016,10,13,11,32,11.80
2016,10,13,11,34,11.80
2016,10,13,11,36,11.70
2016,10,13,11,37,11.60
2016,10,13,11,38,11.60
2016,10,13,11,39,11.60
2016,10,13,11,41,11.70
2016,10,13,11,42,11.70
2016,10,13,11,43,11.70
2016,10,13,11,44,11.80
2016,10,13,11,46,11.80
2016,10,13,11,47,11.80
2016,10,13,11,48,11.80
2016,10,13,11,49,11.80
2016,10,13,11,51,11.80
2016,10,13,11,52,11.80
2016,10,13,11,53,11.80
2016,10,13,11,54,11.80
2016,10,13,11,56,11.80
2016,10,13,11,57,11.80
2016,10,13,11,58,11.80
2016,10,13,11,59,11.80
2016,10,13,12,01,11.80
2016,10,13,12,02,11.80
2016,10,13,12,03,11.80
2016,10,13,12,04,11.80
2016,10,13,12,06,11.80
2016,10,13,12,07,11.80
2016,10,13,12,08,11.80
2016,10,13,12,09,11.80
2016,10,13,12,11,11.80
2016,10,13,12,12,11.90
2016,10,13,12,13,11.90
2016,10,13,12,14,11.90
2016,10,13,12,16,12.00
2016,10,13,12,17,12.10
2016,10,13,12,18,12.10
2016,10,13,12,19,12.10
2016,10,13,12,21,12.20
2016,10,13,12,22,12.30
2016,10,13,12,23,12.30
2016,10,13,12,24,12.30
2016,10,13,12,26,12.30
2016,10,13,12,27,12.30
2016,10,13,12,28,12.30
2016,10,13,12,29,12.30
2016,10,13,12,31,12.30
2016,10,13,12,32,12.40
2016,10,13,12,33,12.40
2016,10,13,12,34,12.40
2016,10,13,12,36,12.40
2016,10,13,12,37,12.40
2016,10,13,12,38,12.50
2016,10,13,12,39,12.50
2016,10,13,12,41,12.50
2016,10,13,12,42,12.50
2016,10,13,12,43,12.50
2016,10,13,12,44,12.50
2016,10,13,12,45,12.50
2016,10,13,12,46,12.50
2016,10,13,12,47,12.40
2016,10,13,12,48,12.40
2016,10,13,12,49,12.40
2016,10,13,12,50,12.30
2016,10,13,12,51,12.30
2016,10,13,12,52,12.30
2016,10,13,12,53,12.30
2016,10,13,12,54,12.30
2016,10,13,12,55,12.30
2016,10,13,12,56,12.30
2016,10,13,12,57,12.30
2016,10,13,12,58,12.30
2016,10,13,12,59,12.30
2016,10,13,13,00,12.30
2016,10,13,13,01,12.30
2016,10,13,13,02,12.30
2016,10,13,13,03,12.30
2016,10,13,13,04,12.30
2016,10,13,13,06,12.30
2016,10,13,13,07,12.30
2016,10,13,13,08,12.30
2016,10,13,13,09,12.30
2016,10,13,13,10,12.30
2016,10,13,13,11,12.30
2016,10,13,13,12,12.30
2016,10,13,13,13,12.30
2016,10,13,13,14,12.30
2016,10,13,13,16,12.30
2016,10,13,13,17,12.30
2016,10,13,13,18,12.30
2016,10,13,13,19,12.30
2016,10,13,13,21,12.30
2016,10,13,13,22,12.30
2016,10,13,13,23,12.30
2016,10,13,13,24,12.30
2016,10,13,13,25,12.30
2016,10,13,13,26,12.30
2016,10,13,13,27,12.30
2016,10,13,13,28,12.30
2016,10,13,13,29,12.30
2016,10,13,13,30,12.30
2016,10,13,13,31,12.30
2016,10,13,13,32,12.30
2016,10,13,13,33,12.30
2016,10,13,13,34,12.30
2016,10,13,13,35,12.30
2016,10,13,13,36,12.30
2016,10,13,13,37,12.30
2016,10,13,13,38,12.30
2016,10,13,13,39,12.30
2016,10,13,13,40,12.30
2016,10,13,13,41,12.30
2016,10,13,13,42,12.30
2016,10,13,13,43,12.30
2016,10,13,13,44,12.30
2016,10,13,13,46,12.30
2016,10,13,13,47,12.30
2016,10,13,13,48,12.30
2016,10,13,13,49,12.30
2016,10,13,13,50,12.30
2016,10,13,13,51,12.30
2016,10,13,13,52,12.30
2016,10,13,13,53,12.30
2016,10,13,13,54,12.30
2016,10,13,13,56,12.30
2016,10,13,13,57,12.30
2016,10,13,13,58,12.30
2016,10,13,13,59,12.40
2016,10,13,14,01,12.40
2016,10,13,14,02,12.30
2016,10,13,14,03,12.30
2016,10,13,14,04,12.30
2016,10,13,14,07,12.30
2016,10,13,14,08,12.30
2016,10,13,14,09,12.30
2016,10,13,14,11,12.30
2016,10,13,14,12,12.30
2016,10,13,14,13,12.30
2016,10,13,14,14,12.30
2016,10,13,14,16,12.30
2016,10,13,14,17,12.30
2016,10,13,14,18,12.30
2016,10,13,14,19,12.30
2016,10,13,14,21,12.30
2016,10,13,14,22,12.40
2016,10,13,14,23,12.40
2016,10,13,14,24,12.40
2016,10,13,14,26,12.40
2016,10,13,14,27,12.40
2016,10,13,14,28,12.40
2016,10,13,14,29,12.40
2016,10,13,14,31,12.40
2016,10,13,14,32,12.40
2016,10,13,14,33,12.30
2016,10,13,14,34,12.30
2016,10,13,14,36,12.30
2016,10,13,14,37,12.30
2016,10,13,14,38,12.30
2016,10,13,14,39,12.30
2016,10,13,14,41,12.30
2016,10,13,14,42,12.30
2016,10,13,14,43,12.30
2016,10,13,14,44,12.30
2016,10,13,14,46,12.30
2016,10,13,14,47,12.30
2016,10,13,14,48,12.30
2016,10,13,14,49,12.30
2016,10,13,14,51,12.30
2016,10,13,14,52,12.30
2016,10,13,14,53,12.30
2016,10,13,14,54,12.30
2016,10,13,14,56,12.30
2016,10,13,14,57,12.30
2016,10,13,14,58,12.30
2016,10,13,14,59,12.30
2016,10,13,15,01,12.30
2016,10,13,15,02,12.30
2016,10,13,15,03,12.30
2016,10,13,15,04,12.30
2016,10,13,15,06,12.30
2016,10,13,15,07,12.30
2016,10,13,15,08,12.30
2016,10,13,15,09,12.30
2016,10,13,15,10,12.30
2016,10,13,15,11,12.30
2016,10,13,15,12,12.30
2016,10,13,15,13,12.30
2016,10,13,15,14,12.40
2016,10,13,15,15,12.40
2016,10,13,15,16,12.40
2016,10,13,15,17,12.40
2016,10,13,15,18,12.40
2016,10,13,15,19,12.40
2016,10,13,15,20,12.40
2016,10,13,15,21,12.40
2016,10,13,15,22,12.40
2016,10,13,15,23,12.50
2016,10,13,15,24,12.50
2016,10,13,15,25,12.50
2016,10,13,15,26,12.50
2016,10,13,15,27,12.50
2016,10,13,15,28,12.50
2016,10,13,15,29,12.50
2016,10,13,15,30,12.50
2016,10,13,15,31,12.50
2016,10,13,15,32,12.50
2016,10,13,15,33,12.50
2016,10,13,15,34,12.50
2016,10,13,15,35,12.50
2016,10,13,15,36,12.50
2016,10,13,15,37,12.50
2016,10,13,15,38,12.50
2016,10,13,15,39,12.50
2016,10,13,15,40,12.50
2016,10,13,15,41,12.50
2016,10,13,15,42,12.50
2016,10,13,15,43,12.50
2016,10,13,15,44,12.50
2016,10,13,15,45,12.50
2016,10,13,15,46,12.50
2016,10,13,15,47,12.50
2016,10,13,15,48,12.40
2016,10,13,15,49,12.50
2016,10,13,15,50,12.40
2016,10,13,15,51,12.40
2016,10,13,15,52,12.40
2016,10,13,15,53,12.40
2016,10,13,15,54,12.40
2016,10,13,15,55,12.40
2016,10,13,15,56,12.40
2016,10,13,15,57,12.40
2016,10,13,15,58,12.40
2016,10,13,15,59,12.40
2016,10,13,16,00,12.40
2016,10,13,16,01,12.40
2016,10,13,16,02,12.30
2016,10,13,16,03,12.30
2016,10,13,16,04,12.30
2016,10,13,16,05,12.30
2016,10,13,16,06,12.30
2016,10,13,16,07,12.30
2016,10,13,16,08,12.30
2016,10,13,16,09,12.30
2016,10,13,16,10,12.30
2016,10,13,16,11,12.30
2016,10,13,16,12,12.30
2016,10,13,16,13,12.30
2016,10,13,16,14,12.30
2016,10,13,16,15,12.30
2016,10,13,16,23,12.30
2016,10,13,16,24,12.30
2016,10,13,16,25,12.30
2016,10,13,16,26,12.30
2016,10,13,16,27,12.30
2016,10,13,16,28,12.30
2016,10,13,16,29,12.30
2016,10,13,16,30,12.30
2016,10,13,16,31,12.30
2016,10,13,16,32,12.30
2016,10,13,16,33,12.30
2016,10,13,16,34,12.30
2016,10,13,16,35,12.30
2016,10,13,16,36,12.30
2016,10,13,16,37,12.30
2016,10,13,16,38,12.30
2016,10,13,16,39,12.30
2016,10,13,16,40,12.30
2016,10,13,16,41,12.30
2016,10,13,16,42,12.30
2016,10,13,16,43,12.30
2016,10,13,16,44,12.30
2016,10,13,16,45,12.30
2016,10,13,16,46,12.30
2016,10,13,16,47,12.30
2016,10,13,16,48,12.30
2016,10,13,16,49,12.30
2016,10,13,16,51,12.30
2016,10,13,16,52,12.30
2016,10,13,16,53,12.30
2016,10,13,16,54,12.30
2016,10,13,16,56,12.30
2016,10,13,16,57,12.30
2016,10,13,16,58,12.30
2016,10,13,16,59,12.30
2016,10,13,17,01,12.30
2016,10,13,17,02,12.30
2016,10,13,17,03,12.30
2016,10,13,17,04,12.30
2016,10,13,17,06,12.30
2016,10,13,17,07,12.30
2016,10,13,17,08,12.30
2016,10,13,17,09,12.30
2016,10,13,17,11,12.30
2016,10,13,17,12,12.30
2016,10,13,17,13,12.30
2016,10,13,17,14,12.30
2016,10,13,17,16,12.30
2016,10,13,17,17,12.30
2016,10,13,17,18,12.30
2016,10,13,17,19,12.30
2016,10,13,17,21,12.30
2016,10,13,17,22,12.30
2016,10,13,17,23,12.30
2016,10,13,17,24,12.30
2016,10,13,17,26,12.30
2016,10,13,17,27,12.30
2016,10,13,17,28,12.30
2016,10,13,17,29,12.30
2016,10,13,17,31,12.30
2016,10,13,17,32,12.30
2016,10,13,17,33,12.30
2016,10,13,17,34,12.30
2016,10,13,17,36,12.30
2016,10,13,17,37,12.30
2016,10,13,17,38,12.30
2016,10,13,17,39,12.30
2016,10,13,17,41,12.30
2016,10,13,17,42,12.30
2016,10,13,17,43,12.30
2016,10,13,17,44,12.30
2016,10,13,17,46,12.30
2016,10,13,17,47,12.30
2016,10,13,17,48,12.30
2016,10,13,17,49,12.30
2016,10,13,17,51,12.30
2016,10,13,17,52,12.30
2016,10,13,17,53,12.30
2016,10,13,17,54,12.30
2016,10,13,17,55,12.30
2016,10,13,17,56,12.30
2016,10,13,17,57,12.30
2016,10,13,17,58,12.30
2016,10,13,17,59,12.30
2016,10,13,18,00,12.30
2016,10,13,18,01,12.30
2016,10,13,18,02,12.30
2016,10,13,18,03,12.30
2016,10,13,18,04,12.30
2016,10,13,18,06,12.30
2016,10,13,18,07,12.30
2016,10,13,18,08,12.30
2016,10,13,18,09,12.30
2016,10,13,18,10,12.30
2016,10,13,18,11,12.30
2016,10,13,18,12,12.30
2016,10,13,18,13,12.30
2016,10,13,18,14,12.30
2016,10,13,18,15,12.30
2016,10,13,18,16,12.30
2016,10,13,18,17,12.30
2016,10,13,18,18,12.30
2016,10,13,18,19,12.30
2016,10,13,18,20,12.30
2016,10,13,18,21,12.30
2016,10,13,18,22,12.30
2016,10,13,18,23,12.30
2016,10,13,18,24,12.30
2016,10,13,18,25,12.30
2016,10,13,18,26,12.30
2016,10,13,18,27,12.30
2016,10,13,18,28,12.30
2016,10,13,18,29,12.30
2016,10,13,18,30,12.30
2016,10,13,18,31,12.30
2016,10,13,18,32,12.30
2016,10,13,18,33,12.30
2016,10,13,18,34,12.30
2016,10,13,18,35,12.30
2016,10,13,18,36,12.30
2016,10,13,18,37,12.30
2016,10,13,18,38,12.30
2016,10,13,18,39,12.30
2016,10,13,18,40,12.30
2016,10,13,18,41,12.30
2016,10,13,18,42,12.30
2016,10,13,18,43,12.30
2016,10,13,18,44,12.30
2016,10,13,18,45,12.30
2016,10,13,18,46,12.30
2016,10,13,18,47,12.30
2016,10,13,18,48,12.30
2016,10,13,18,49,12.30
2016,10,13,18,50,12.30
2016,10,13,18,51,12.30
2016,10,13,18,52,12.30
2016,10,13,18,53,12.30
2016,10,13,18,54,12.30
2016,10,13,18,55,12.20
2016,10,13,18,56,12.20
2016,10,13,18,57,12.20
2016,10,13,18,58,12.20
2016,10,13,18,59,12.20
2016,10,13,19,00,12.20
2016,10,13,19,01,12.20
2016,10,13,19,02,12.20
2016,10,13,19,03,12.20
2016,10,13,19,04,12.30
2016,10,13,19,05,12.20
2016,10,13,19,06,12.30
2016,10,13,19,07,12.30
2016,10,13,19,08,12.30
2016,10,13,19,09,12.30
2016,10,13,19,10,12.30
2016,10,13,19,11,12.30
2016,10,13,19,12,12.30
2016,10,13,19,14,12.30
2016,10,13,19,16,12.30
2016,10,13,19,17,12.30
2016,10,13,19,18,12.30
2016,10,13,19,19,12.30
2016,10,13,19,21,12.20
2016,10,13,19,22,12.20
2016,10,13,19,23,12.20
2016,10,13,19,24,12.20
2016,10,13,19,26,12.20
2016,10,13,19,27,12.20
2016,10,13,19,28,12.20
2016,10,13,19,29,12.20
2016,10,13,19,31,12.10
2016,10,13,19,32,12.10
2016,10,13,19,33,12.10
2016,10,13,19,34,12.10
2016,10,13,19,36,12.10
2016,10,13,19,37,12.10
2016,10,13,19,38,12.00
2016,10,13,19,39,12.00
2016,10,13,19,41,12.00
2016,10,13,19,42,12.00
2016,10,13,19,43,12.00
2016,10,13,19,44,12.00
2016,10,13,19,46,12.00
2016,10,13,19,47,11.90
2016,10,13,19,48,11.90
2016,10,13,19,49,11.90
2016,10,13,19,51,11.90
2016,10,13,19,52,11.90
2016,10,13,19,53,11.90
2016,10,13,19,54,11.90
2016,10,13,19,56,11.90
2016,10,13,19,57,11.90
2016,10,13,19,58,11.90
2016,10,13,19,59,11.80
2016,10,13,20,01,11.80
2016,10,13,20,02,11.80
2016,10,13,20,03,11.80
2016,10,13,20,04,11.80
2016,10,13,20,06,11.80
2016,10,13,20,07,11.80
2016,10,13,20,08,11.80
2016,10,13,20,09,11.80
2016,10,13,20,11,11.80
2016,10,13,20,12,11.80
2016,10,13,20,13,11.80
2016,10,13,20,14,11.80
2016,10,13,20,16,11.70
2016,10,13,20,17,11.70
2016,10,13,20,18,11.70
2016,10,13,20,19,11.70
2016,10,13,20,21,11.70
2016,10,13,20,22,11.70
2016,10,13,20,23,11.60
2016,10,13,20,24,11.60
2016,10,13,20,26,11.60
2016,10,13,20,27,11.60
2016,10,13,20,28,11.60
2016,10,13,20,29,11.60
2016,10,13,20,31,11.60
2016,10,13,20,32,11.60
2016,10,13,20,33,11.60
2016,10,13,20,34,11.60
2016,10,13,20,36,11.60
2016,10,13,20,37,11.60
2016,10,13,20,38,11.60
2016,10,13,20,39,11.60
2016,10,13,20,41,11.60
2016,10,13,20,42,11.60
2016,10,13,20,43,11.60
2016,10,13,20,44,11.60
2016,10,13,20,45,11.60
2016,10,13,20,46,11.60
2016,10,13,20,47,11.60
2016,10,13,20,48,11.60
2016,10,13,20,49,11.60
2016,10,13,20,50,11.60
2016,10,13,20,51,11.60
2016,10,13,20,52,11.60
2016,10,13,20,53,11.60
2016,10,13,20,54,11.60